Regional Weather Roundup
Issued by NWS

Home | Current Version | Previous Version | Text Only | Print | Product List | Glossary On
Versions: 1 2 3 4 5 6 7 8 9 10 11 12 13 14 15 16 17 18 19 20 21 22 23 24 25 26 27 28 29 30 31 32 33 34 35 36 37 38 39 40 41 42 43 44 45 46 47 48 49 50
000
ASUS43 KMKX 221721
RWRWI

WISCONSIN REGIONAL WEATHER ROUNDUP
NATIONAL WEATHER SERVICE MILWAUKEE/SULLIVAN WI
1200 PM CDT FRI SEP 22 2017

NOTE: "FAIR" INDICATES FEW OR NO CLOUDS BELOW 12,000 FEET WITH NO
SIGNIFICANT WEATHER AND/OR OBSTRUCTIONS TO VISIBILITY.

WIZ001-002-006>008-014>016-023>028-221800-
NORTHWEST WISCONSIN

CITY           SKY/WX    TMP DP  RH WIND       PRES   REMARKS
SUPERIOR ARPT  LGT RAIN  67  66  94 S6        29.88R
ASHLAND        CLOUDY    66  64  93 SE9G18    29.88F
HAYWARD        CLOUDY    67  64  90 VRB5      29.94R
SIREN          CLOUDY    72  68  89 SE7       29.90S
CUMBERLAND     CLOUDY    72  70  94 E10       29.93S FOG
RICE LAKE      CLOUDY    73  71  92 NE8       29.95R FOG
CHETEK           N/A     74  72  91 CALM      29.94R
LADYSMITH      CLOUDY    69  66  91 NE10      30.01R
EAU CLAIRE     MOSUNNY   87  71  58 S13       29.90S HX  93
MENOMONIE      PTSUNNY   86  70  59 S12G18    29.89S HX  90
NEW RICHMOND   MOSUNNY   82  70  66 SE8       29.89F HX  86
OSCEOLA        MOSUNNY   83  71  66 S14       29.90F HX  87
$$

WIZ003>005-009-010-017-018-221800-
NORTH CENTRAL WISCONSIN

CITY           SKY/WX    TMP DP  RH WIND       PRES   REMARKS
MANITOWISH WTR TSTM      64  64 100 NE5       29.99F
ARBOR VITAE    TSTM      69  65  86 NW18G38   30.06R
WOODRUFF       TSTM      69  65  86 NW18G38   30.06R
RHINELANDER    CLOUDY    75  71  87 NW6       30.02R
EAGLE RIVER    RAIN      73  64  75 NW23G35   30.07R
LAND O LAKES   TSTM      65  63  93 NW15G37   30.10R VSB 1/4
PHILLIPS       TSTM      66  66 100 E8        30.01F VSB 1
TOMAHAWK       CLOUDY    74  68  82 NW14      30.03R
MEDFORD        CLOUDY    82  71  68 S13       29.98F HX  86
MERRILL        MOSUNNY   84  73  69 S8        29.99F HX  89
$$

WIZ029-030-035-036-043>047-221800-
CENTRAL WISCONSIN

CITY           SKY/WX    TMP DP  RH WIND       PRES   REMARKS
WAUSAU         CLOUDY    85  69  58 S12G18    29.98S HX  89
MOSINEE        MOSUNNY   82  72  69 S13       30.02R HX  87
MARSHFIELD     CLOUDY    84  68  58 S13       29.99R HX  87
STEVENS POINT  MOSUNNY   85  70  60 SW7       30.01S HX  89
WAUPACA        SUNNY     89  71  55 SW9       30.02R HX  94
WAUTOMA        SUNNY     87  71  58 SW13G21   30.01R HX  93
WISC RAPIDS    MOSUNNY   87  72  60 SW9       30.01R HX  93
CAMP DOUGLAS   MOSUNNY   88  70  55 S12G21    29.98S HX  92
$$

WIZ011>013-019>022-031-037>040-048>050-221800-
NORTHEAST WISCONSIN

CITY           SKY/WX    TMP DP  RH WIND       PRES   REMARKS
ANTIGO         CLOUDY    81  71  72 S10       30.02S HX  85
SHAWANO        MOSUNNY   88  70  53 SW8       30.00R HX  93
OCONTO         CLOUDY    87  71  58 SW8       29.99S HX  92
STURGEON BAY   SUNNY     89  71  55 SW9       30.01S HX  95
GREEN BAY      SUNNY     86  71  60 SW12      30.01S HX  91
MANITOWOC      SUNNY     85  73  67 S10       30.03S HX  91
APPLETON       MOSUNNY   86  64  48 S15G22    30.01S HX  87
CLINTONVILLE   SUNNY     88  70  55 S10G16    30.01R HX  92
OSHKOSH        SUNNY     86  72  62 S15G21    30.01F HX  92
$$

WIZ032>034-041-042-053>061-221800-
SOUTHWEST WISCONSIN

CITY           SKY/WX    TMP DP  RH WIND       PRES   REMARKS
LA CROSSE      SUNNY     89  71  55 S20       29.94R HX  95
SPARTA         SUNNY     87  69  54 S15G24    29.97R HX  91
VIROQUA        SUNNY     86  69  56 S16G23    30.00S HX  90
BOSCOBEL       SUNNY     91  68  46 SW13G21   29.98F HX  95
PRAIRIE DU CHI SUNNY     88  67  50 S10       29.97F HX  90
PLATTEVILLE    SUNNY     87  70  57 S15G21    30.03F HX  92
$$

WIZ056-057-062-063-064-067-068-221800-
SOUTH CENTRAL WISCONSIN

CITY           SKY/WX    TMP DP  RH WIND       PRES   REMARKS
REEDSBURG      SUNNY     87  70  55 S17       30.00S HX  92
BARABOO/DELLS  SUNNY     85  67  54 S17       30.01F HX  88
LONE ROCK      SUNNY     90  71  53 S13G21    30.00F HX  96
MINERAL POINT  SUNNY     90  70  51 S15G23    30.04S HX  95
MADISON        MOSUNNY   86  71  60 S13       30.02F HX  91
MIDDLETON      SUNNY     88  69  53 S13G20    30.03F HX  92
WATERTOWN      SUNNY     87  70  55 SW12      30.03F HX  92
MONROE         SUNNY     86  68  54 S13       30.05F HX  89
JANESVILLE     MOSUNNY   91  66  43 SW10      30.04F HX  94
$$

WIZ051-052-058>065-066-070>072-221800-
SOUTHEAST WISCONSIN

CITY           SKY/WX    TMP DP  RH WIND       PRES   REMARKS
MILWAUKEE      MOSUNNY   92  66  42 SW14      30.04F HX  94
WAUKESHA       SUNNY     88  64  45 S13       30.06F HX  89
MILWAUKEE/TIMM SUNNY     90  61  37 SW13      30.06F HX  89
RACINE         SUNNY     92  68  45 SW8       30.06F HX  96
BURLINGTON     SUNNY     91  68  47 SW9       30.05F HX  94
KENOSHA        SUNNY     92  66  42 SW12      30.06F HX  94
FOND DU LAC    SUNNY     86  68  54 SW13G18   30.02F HX  89
SHEBOYGAN      SUNNY     89  72  56 S14       30.03F HX  96
WEST BEND        N/A     88  64  45 SW10G17   30.04F HX  89
JUNEAU         SUNNY     85  70  60 S10       30.05F HX  89
$$

LSZ147-162-221800-
LAKE SUPERIOR

STATION/POSITION TIME  TEMP    WIND        PRES    WAVE
                       AIR SEA DIR/SP/G            HT/PER
                 (UTC) (F)     (DEG/KT/KT) (MB)    (FT/S)
W MID LAKE BUOY  1650   61 54  180/ 27/ 31 1009.5F   1/ 3
DEVILS ISLAND    1700   69     160/ 23/ 31 1009.1F
PORT WING        1621   68     140/  9/ 19 1009.1F
SAXON HARBOR     1621   67     130/  4/ 14 1013.5R
$$

LMZ867-665-643>646-221800-
LAKE MICHIGAN

STATION/POSITION TIME  TEMP    WIND        PRES    WAVE
                       AIR SEA DIR/SP/G            HT/PER
                 (UTC) (F)     (DEG/KT/KT) (MB)    (FT/S)
S GREEN BAY BUOY 1700   73 69  210/  6/  6 1015.9
N MID LAKE BUOY  1650   69 66  190/ 12/ 14 1016.4F   2/ 4
NORTHPORT PIER   1640   73     150/  9/ 12 1015.6S
KEWAUNEE LAKESHO 1700   66     180/ 13/ 15 1015.8
SHEBOYGAN LAKESH 1700   70     170/ 15/ 16 1016.6F
PORT WASHINGTON  1640   76     170/  7/  9 1017.9F
ATWATER BUOY     1609   71 66  150/ 12/ 14 1017.6F
MILWAUKEE LAKESH 1700   71     140/ 11/ 13   N/A
S MID LAKE BUOY  1650   72 70  160/  8/  8 1018.4F   1
KENOSHA   LAKESH 1700   75     160/  9/ 12 1017.3
$$

TC  - TEMPERATURE IN CELSIUS
VSB - VISIBILITY IN STATUTE MILES
WCI - WIND CHILL INDEX
HX  - HEAT INDEX





USA.gov is the U.S. government's official web portal to all federal, state and local government web resources and services.